User: anonymous   Login
Location: Владивосток
(43.1151°N, 131.8856°E)
Time: 14:57:11
(UTC+10:00)
Language:

LilacSat-2 - Orbit

View from above orbital plane
View from above orbital plane
View from above satellite
View from above satellite

Ground track
Ground track

The orbit data is extracted from the following two-line orbital elements,

1 40908U 15049K   24106.82112430  .00012690  00000-0  51294-3 0  9996
2 40908  97.5279 115.1382 0011979 200.1666 159.9100 15.24814403473989
Epoch (UTC): 15 April 2024 19:42:25
Eccentricity: 0.0011979
inclination: 97.5279°
perigee height: 483 km
apogee height: 499 km
right ascension of ascending node: 115.1382°
argument of perigee: 200.1666°
revolutions per day: 15.24814403
mean anomaly at epoch: 159.9100°
orbit number at epoch: 47398

The dashed part of the orbit path shows where the satellite is in the earth's shadow,  

DLR